[ hide orbit diagram ]
For accurate long-term ephemerides, please instead use our Horizons system.This orbit viewer was implemented using two-body methods, and hence should not be used for determining accurate long-term trajectories (over several years or decades) or planetary encounter circumstances.
Orbital Elements at Epoch 2459200.5 (2020-Dec-17.0) TDB
Reference: JPL 57 (heliocentric ecliptic J2000)
Element | Value | Uncertainty (1-sigma) | Units |
e | .2418926753207171 | 3.6672e-08 | |
a | 2.723224767318245 | 6.8727e-09 | au |
q | 2.064496642851997 | 9.9991e-08 | au |
i | 10.96728415727063 | 3.9585e-06 | deg |
node | 96.93256765013699 | 1.9417e-05 | deg |
peri | 172.7925501729381 | 2.0597e-05 | deg |
M | 116.8529450479783 | 9.2077e-06 | deg |
tp | 2458667.704165347410 (2019-Jul-03.20416535) | 4.0645e-05 | TDB |
period | 1641.434885498 4.49 | 6.2139e-06 1.701e-08 | d yr |
n | .2193203051674989 | 8.3026e-10 | deg/d |
Q | 3.381952891784492 | 8.5352e-09 | au |
|
| | Orbit Determination Parameters
Additional Information
|
[ show covariance matrix ]
Physical Parameter Table
Parameter |
Symbol |
Value |
Units |
Sigma |
Reference |
Notes |
absolute magnitude |
H |
8.34 |
|
n/a |
E2021B10 |
IRAS observations used: 55 |
diameter |
diameter |
118.929 |
km |
2.856 |
urn:nasa:pds:neowise_diameters_albedos::2.0[mainbelt] (http://adsabs.harvard.edu/abs/2011ApJ...741...68M) |
|
rotation period |
rot_per |
32.50 |
h |
n/a |
LCDB (Rev. 2020-October); Warner et al., 2009 |
Published Reference List: [Harris, A.W.; Young, J.W. (1983) Icarus 54, 59-109.] [Piironen, J.; Magnusson, P.; Lagerkvist, C.-I.; Williams, I.P.; et al. (1997) Astron. Astrophys. Suppl. Ser. 121, 489-497.] [Behrend, R. (2005) Observatoire de Geneve web site, http://obswww.unige.ch/~behrend/page_cou.html] [Behrend, R. (2014) Observatoire de Geneve web site, http://obswww.unige.ch/~behrend/page_cou.html] |
geometric albedo |
albedo |
0.043 |
|
0.007 |
urn:nasa:pds:neowise_diameters_albedos::2.0[mainbelt] (http://adsabs.harvard.edu/abs/2011ApJ...741...68M) |
|
B-V |
BV |
0.748 |
|
0.010 |
EAR-A-5-DDR-UBV-MEAN-VALUES-V1.2 |
#obs=4; phase (min.=4.91, mean=9.49, max.=14.50) deg. |
U-B |
UB |
0.394 |
|
0.020 |
EAR-A-5-DDR-UBV-MEAN-VALUES-V1.2 |
#obs=4; phase (min.=4.91, mean=9.49, max.=14.50) deg. |
Tholen spectral type |
spec_T |
C |
|
n/a |
EAR-A-5-DDR-TAXONOMY-V4.0 |
used 7 color indices; used ground-based radiometric albedo |
SMASSII spectral type |
spec_B |
Ch |
|
n/a |
EAR-A-5-DDR-TAXONOMY-V4.0 |
based on a high-resolution spectrum by Xu et al. (1995) or Bus and Binzel (2002) |
|
410 Chloris (A896 AC) Discovered 1896-Jan-07 by Charlois, A. at Nice |
Reference: DISCOVERY.DB | Last Updated: 2003-08-29 |
|
[ show close-approach data ]
Alternate Designations
A896 AC = A902 UK = A906 GB |
|
|